星链-5960 (STARLINK-5960 )

导读 | 豆包AI

STARLINK-5960是美国太空探索技术公司星链星座的卫星,于2023年6月12日发射升空,归属星链互联网卫星组网计划。它搭载卫星通信技术,旨在为全球提供低延迟、高速率的宽带互联网服务,补充星链星座在轨容量,完善星座覆盖密度,推进全球卫星互联网部署进度。

基本信息
目录编号:
56920
目录名称:
STARLINK-5960
国际标识:
2023-083AW
轨道中心:
EARTH
卫星名称:
星链-5960
卫星全名:
星链-5960 (STARLINK-5960 )
卫星状态:
在轨 (已飞行1053 天)
发射日期:
2023-06-12 UTC
国别 :
美国 (US)
星等 :
--
轨道信息
数据来源 国际轨道数据
星历时间: 2026-04-30T10:40:05+0800
5小时前
查看轨道信息
半长轴: 6861.196km
偏心率: 0.0001333
轨道倾角: 43.003°
近地点辐角 273.512°
升交点赤经 140.166°
平近点角 86.557°
近地点: 482.144km
远地点: 483.974km
周期: 94.267分钟
每日圈数: 15.27577
详细信息
固有亮度:
5
最大亮度:
2.4
卫星平台:
Starlink v1.5
覆盖范围:
全球
运营商:
太空探索技术公司
运营商所在国:
美国
制造商(研发单位):
太空探索技术公司
制造商所在国:
美国
使用方式:
暂无
卫星简介
星链(Starlink)计划是由太空探索技术公司(SpaceX)提出的一个巨型低轨卫星互联网星座项目,计划在2019年至2024年间在太空搭建由约1.2万颗卫星组成的“星链”网络,其中1584颗将部署在地球上空550千米处的近地轨道,并从2020年开始工作。该卫星仍在工作。
2D轨道图
3D轨道图
轨道高度分析图
轨道倾角分析图
轨道综合分析图
查看轨道综合分析图